TIME,DELAY(SENSOR),PRES,T(CTD),SAL,OXYGEN,RAWTEMP,T(OPTODE),TCPHASE,FLUOR,BETA(BETA700),BETA(BETA412),BETA(BETA440),CDOM,C(CSC),ED(ED412.40),ED(ED444.00),ED(ED489.70),ED(ED554.30),LU(LU411.80),LU(LU443.40),LU(LU489.60),LU(LU554.10),COMP,TILTX,TILTX(TILTY),CHECK
1339104358,5804,497.8200073242187500,7.0019001960754395,34.1622009277343750,75.5586471557617200,587.8693847656250000,6.9754347801208500,49.2654800415039060,52,104,90,81,80,15339,2147750381,2147422025,2148000731,2147876909,2147628452,2147079606,2148242962,2147201316,578,4,13,43920
1339104509,5808,486.4299926757812500,7.0180001258850100,34.1501007080078100,84.0826416015625000,586.9818115234375000,7.0040040016174320,48.2426795959472660,52,105,90,80,80,15338,2147751003,2147423579,2148000841,2147873892,2147628178,2147078893,2148238784,2147203876,1746,4,13,2903
1339104656,5807,474.5499877929687500,7.2505998611450195,34.1166000366210940,101.6606979370117200,579.9495239257812000,7.2300891876220700,46.2055892944335940,51,104,91,79,80,15337,2147751460,2147418697,2148002048,2147876653,2147630793,2147080045,2148244425,2147200649,2084,3,13,4323
1339104783,5809,462.7600097656250000,7.4786000251770020,34.1027984619140600,113.5458984375000000,572.8453979492188000,7.4580287933349610,44.8867988586425800,51,105,87,81,79,15339,2147747968,2147422107,2148003776,2147871762,2147626633,2147081124,2148240722,2147201938,2242,4,13,61593
1339104900,5811,452.1099853515625000,7.8312997817993160,34.1073989868164060,123.3375015258789000,561.8256225585938000,7.8107299804687500,43.7659492492675800,50,107,89,81,78,15335,2147748882,2147421878,2148000347,2147874907,2147625536,2147086875,2148234550,2147200667,2739,4,13,62776
1339105015,5811,441.3800048828125000,8.0847997665405270,34.1074981689453100,132.3056945800781200,552.8577270507812000,8.0969867706298830,42.7938995361328100,50,108,91,79,77,15338,2147746075,2147419876,2148000045,2147872960,2147624658,2147085961,2148234688,2147204251,3505,4,13,63546
1339105142,5810,430.1400146484375000,8.3466997146606450,34.1026992797851560,143.1907043457031200,545.2944946289062000,8.3378887176513670,41.7220687866210940,50,106,87,80,78,15335,2147744493,2147420845,2148001481,2147873865,2147621494,2147088914,2148233938,2147201316,3410,4,13,22790
1339105271,5811,419.0899963378906000,8.5881004333496100,34.1043014526367200,152.8119049072265600,537.7943115234375000,8.5763225555419920,40.8019905090332000,50,106,91,81,76,15336,2147746788,2147421558,2148001718,2147871753,2147622738,2147084973,2148230144,2147203318,327,4,13,57183
1339105398,5810,408.1700134277344000,8.6815004348754880,34.1090011596679700,155.9803009033203000,534.3928222656250000,8.6843109130859380,40.4927101135253900,50,105,94,79,77,15334,2147743094,2147418779,2148000347,2147875748,2147620964,2147090733,2148230674,2147205339,1406,4,13,26968
1339105515,5805,397.6600036621094000,8.9371995925903320,34.1040000915527340,163.1347045898437500,526.7805786132812000,8.9256477355957030,39.8080215454101560,50,107,90,80,75,15335,2147741979,2147417682,2148000813,2147875830,2147622253,2147092891,2148229888,2147207360,2220,4,13,62193
1339105642,5808,386.4400024414062500,9.1632003784179690,34.1100997924804700,170.4378967285156200,519.8186035156250000,9.1459827423095700,39.1468505859375000,50,106,90,81,75,15337,2147739602,2147421970,2147999424,2147874230,2147617106,2147093430,2148229531,2147203940,1917,4,14,57223
1339105769,5807,375.6000061035156000,9.4180002212524410,34.1178016662597660,176.0805969238281200,511.5827026367187500,9.4061670303344730,38.6009483337402340,50,107,90,81,76,15333,2147741577,2147420397,2147998966,2147873700,2147615433,2147093449,2148227035,2147204242,2347,4,13,42337
1339105910,5808,364.2300109863281000,9.5636997222900390,34.1268997192382800,180.0690002441406200,506.8895874023437500,9.5542068481445310,38.2424888610839840,50,105,90,81,74,15337,2147741613,2147424265,2148001014,2147876324,2147614153,2147097837,2148226605,2147206107,143,4,14,38655
1339106061,5808,353.5899963378906000,9.7887001037597660,34.1314010620117200,186.6340026855468800,499.5762023925781000,9.7845926284790040,37.6730194091796900,50,106,89,80,75,15337,2147739456,2147421513,2148003574,2147873792,2147614116,2147101769,2148227044,2147201910,3191,3,14,15864
1339106208,5809,342.3599853515625000,10.2411003112792970,34.1403999328613300,201.3280944824218800,485.2833862304687500,10.2337799072265620,36.4941596984863300,49,106,90,81,72,15338,2147737353,2147423606,2148006656,2147873737,2147612589,2147097435,2148224886,2147205321,1875,3,14,13335
1339106335,5811,331.6400146484375000,11.0205001831054690,34.1707000732421900,208.0316009521484400,460.0481872558594000,11.0236196517944340,35.6737403869628900,49,106,87,81,71,15337,2147738532,2147422646,2148010212,2147872704,2147608722,2147109266,2148224109,2147203163,2017,3,13,44538
1339106476,5809,320.0799865722656000,11.7505998611450200,34.1944007873535160,203.7595977783203000,436.1882934570312500,11.7669296264648440,35.5405197143554700,49,112,94,80,71,15327,2147733705,2147423561,2148008146,2147875611,2147605814,2147109394,2148223789,2147207113,1720,3,14,17384
1339106603,5809,309.8699951171875000,12.2489004135131840,34.2239990234375000,194.2906951904297000,419.7871093750000000,12.2761096954345700,35.8612594604492200,49,109,91,82,71,15328,2147733485,2147424914,2148012745,2147873892,2147600804,2147115017,2148216475,2147210130,1370,4,15,25903
1339106744,5811,298.8900146484375000,12.7967996597290040,34.2549018859863300,193.4644012451172000,402.9035949707031000,12.7988796234130860,35.6454811096191400,49,110,89,81,71,15325,2147733970,2147426669,2148020571,2147872054,2147598875,2147120667,2148217069,2147212992,996,3,14,27583
1339106895,5809,287.6499938964844000,13.2151002883911130,34.2905006408691400,197.0229034423828000,389.4625854492187500,13.2141399383544920,35.2115287780761700,49,107,90,81,71,15328,2147729316,2147432310,2148033142,2147873965,2147599753,2147129078,2148220553,2147210212,44,4,14,9000
1339107078,5809,274.3399963378906000,13.8584003448486330,34.3408012390136700,200.9837951660156200,368.7103881835937500,13.8538503646850590,34.6487998962402340,49,107,90,81,69,15322,2147727131,2147443346,2148068635,2147874102,2147592548,2147136896,2148234980,2147206628,285,4,14,58895
1339107204,5808,263.2900085449219000,14.3268003463745120,34.3708000183105500,200.3329925537109400,353.5606079101562500,14.3198795318603520,34.4575805664062500,50,111,90,82,69,15323,2147726921,2147454546,2148099282,2147873920,2147590610,2147148800,2148250870,2147213522,579,3,13,15508
1339107331,5804,252.4900054931640600,14.7646999359130860,34.4165992736816400,201.3666992187500000,337.5940856933594000,14.8102302551269530,34.1545791625976560,49,109,90,82,70,15322,2147723702,2147475309,2148151277,2147872155,2147590710,2147162532,2148271405,2147213412,2284,3,15,123
1339107460,5810,241.4799957275390600,15.3649997711181640,34.4780006408691400,202.9826049804687500,319.0126953125000000,15.3800096511840820,33.7814903259277340,49,109,91,81,68,15318,2147728886,2147502089,2148213732,2147873289,2147589129,2147180772,2148302573,2147217362,2592,3,14,4157
1339107599,5808,230.3000030517578000,16.1616992950439450,34.5587005615234400,203.9423065185547000,293.8739013671875000,16.1496200561523440,33.3566093444824200,50,109,91,82,68,15322,2147733467,2147547702,2148314624,2147876489,2147589366,2147214043,2148346166,2147219949,1108,3,14,21738
1339107728,5809,219.9100036621093800,16.7155990600585940,34.6197013854980500,204.5189971923828000,275.6494140625000000,16.7068805694580080,33.0600318908691400,50,111,88,81,68,15316,2147747190,2147615597,2148448896,2147875766,2147589376,2147248246,2148411273,2147226432,93,4,14,47168
1339107879,5810,209.1499938964843800,17.9101009368896500,34.7599983215332000,207.9461975097656200,237.3757934570312500,17.8761005401611330,32.3210792541503900,51,108,91,82,67,15318,2147766162,2147726939,2148664585,2147874496,2147593161,2147327835,2148505188,2147237513,1377,3,15,873
1339108049,5810,198.0599975585937500,18.3470001220703120,34.8111991882324200,210.0158996582031200,222.2248992919922000,18.3387699127197270,31.9946403503417970,53,106,92,81,66,15313,2147803867,2147881398,2148934656,2147875785,2147607588,2147420361,2148642139,2147244443,1291,3,16,43490
1339108116,5806,193.9299926757812500,18.3955001831054700,34.8174018859863300,210.4503021240234400,220.5108032226562500,18.3911209106445300,31.9466800689697270,54,108,88,81,66,15313,2147820809,2147948562,2149043977,2147877028,2147613010,2147458066,2148688960,2147252096,1327,3,15,32842
1339108183,5808,190.1999969482422000,18.4708003997802730,34.8246002197265600,210.4163055419922000,216.9577026367187500,18.4996299743652340,31.8992404937744140,54,107,88,80,66,15304,2147836352,2147993417,2149114806,2147879808,2147620178,2147478948,2148724955,2147254994,1298,2,16,36711
1339108262,5810,186.6900024414062500,18.7185001373291000,34.8492012023925800,210.2906036376953000,209.9559936523437500,18.7134704589843750,31.8097801208496100,55,107,88,81,66,15309,2147857920,2148044187,2149188416,2147877805,2147625728,2147511222,2148761609,2147257572,1459,2,15,49724
1339108367,5806,182.8500061035156200,19.2273006439209000,34.9012985229492200,210.7919006347656200,193.4488983154297000,19.2177295684814450,31.5558300018310550,59,112,91,82,65,15309,2147899026,2148166921,2149390994,2147878637,2147641773,2147584000,2148861558,2147267081,589,2,15,55359
1339108482,5807,178.8200073242187500,19.5060997009277340,34.9304008483886700,211.3224945068359400,185.1873931884765600,19.4701900482177730,31.4144592285156250,61,107,92,83,66,15301,2147942125,2148279524,2149567515,2147880292,2147660717,2147645577,2148942162,2147271177,658,2,15,61232
1339108640,5811,174.8000030517578000,19.8894004821777340,34.9686012268066400,212.2230987548828000,171.9707946777343800,19.8742408752441400,31.1870498657226560,63,109,90,82,64,15299,2148000667,2148419913,2149788900,2147880073,2147682788,2147728758,2149043949,2147275163,503,2,15,64983
1339108743,5811,170.6300048828125000,19.9342994689941400,34.9758987426757800,213.4344940185547000,170.1127929687500000,19.9310607910156250,31.0968399047851560,64,111,91,82,66,15299,2148090532,2148629339,2150120932,2147882441,2147717942,2147843803,2149198628,2147292480,2922,2,16,14968
1339108822,5807,166.6399993896484400,19.9587001800537100,34.9793014526367200,213.6994018554687500,169.1598968505859400,19.9601993560791000,31.0699596405029300,65,110,93,82,65,15296,2148198582,2148860864,2150469494,2147884598,2147761472,2147972470,2149366838,2147305965,2719,3,16,2445
1339108901,5805,162.5800018310547000,20.0631999969482420,34.9902992248535160,213.9006958007812500,165.6853027343750000,20.0664806365966800,31.0125694274902340,65,111,88,81,65,15291,2148318326,2149084324,2150791899,2147884480,2147810276,2148101001,2149524050,2147315163,2854,3,16,11012
1339108994,5810,158.8899993896484400,20.3498992919921880,35.0275993347168000,215.0399932861328000,156.2292938232422000,20.3558197021484380,30.8256607055664060,67,108,89,82,65,15295,2148473097,2149355318,2151180114,2147887094,2147876452,2148254820,2149713216,2147333531,3353,2,16,50937
1339109121,5808,155.3000030517578000,20.7831001281738280,35.0788993835449200,217.1463928222656200,143.1177978515625000,20.7572898864746100,30.5411396026611330,68,110,87,82,65,15283,2148637878,2149620690,2151542546,2147890358,2147949165,2148418038,2149886985,2147346614,131,2,16,25980
1339109307,5807,150.6399993896484400,21.0879001617431640,35.1207008361816400,220.6493988037109400,132.5296020507812500,21.0817794799804700,30.2210693359375000,73,114,89,81,62,15284,2148971318,2150167305,2152332004,2147896932,2148108187,2148755977,2150281362,2147379008,2692,2,16,23759
1339109398,5805,146.8600006103515600,21.7520008087158200,35.2102012634277340,223.1125946044922000,112.5044021606445300,21.6962604522705080,29.8358802795410160,77,116,91,82,62,15276,2149213504,2150550692,2152871506,2147904237,2148236187,2148992950,2150550427,2147399040,2361,2,16,24123
1339109513,5809,143.0899963378906200,21.8255004882812500,35.2218017578125000,227.8556976318359400,108.6977996826171900,21.8131904602050780,29.5529308319091800,80,115,91,82,63,15269,2149540589,2151030628,2153548352,2147911853,2148414848,2149334582,2150909897,2147429696,1879,2,16,29281
1339109616,5809,138.6399993896484400,21.9221000671386720,35.2220001220703100,229.8430023193359400,105.4281997680664000,21.9136695861816400,29.4148902893066400,82,117,92,82,61,15267,2149917805,2151534774,2154199369,2147922925,2148637595,2149670976,2151238738,2147452964,1728,2,16,31167
1339109695,5805,134.4600067138672000,21.9491996765136720,35.2201995849609400,230.6417999267578000,104.5146026611328100,21.9417495727539060,29.3647308349609380,84,115,93,83,62,15266,2150372900,2152129380,2154979291,2147936210,2148894537,2150075126,2151653129,2147488118,1443,2,16,5194
1339109774,5810,130.0500030517578000,21.9764003753662100,35.2204017639160160,231.2183990478515600,103.5194015502929700,21.9723491668701170,29.3243293762207030,83,118,91,82,62,15253,2151098139,2153126070,2156361106,2147960054,2149275227,2150695853,2152321819,2147539254,1203,2,16,57766
1339109841,5807,126.1800003051757800,21.9890995025634770,35.2204017639160160,231.6396942138672000,103.0426025390625000,21.9869995117187500,29.2982501983642580,81,120,91,84,63,15258,2151618002,2153724114,2157088320,2147978176,2149561846,2151064731,2152695753,2147570697,1120,2,16,7887
1339109910,5806,122.1299972534179700,22.1292991638183600,35.2131996154785160,231.2830963134765600,99.2008285522461000,22.1051406860351560,29.2659797668457030,86,118,91,82,61,15256,2152576182,2154962788,2158744237,2148010715,2150065353,2151830884,2153514505,2147637211,920,3,15,46311
1339109977,5811,118.6999969482421900,22.2467002868652340,35.1936988830566400,232.1515960693359400,95.2828369140625000,22.2256603240966800,29.1746196746826170,101,120,93,83,62,15243,2153545545,2156193737,2160330404,2148048576,2150540736,2152485302,2154215168,2147696694,1389,2,16,35922
1339110068,5810,114.8499984741211000,22.2649993896484380,35.1372985839843750,231.2693939208984400,94.2228469848632800,22.2582798004150400,29.2029304504394530,114,124,92,84,62,15224,2152939227,2154871515,2158076397,2148028809,2150129993,2151497828,2152985545,2147612955,2309,2,16,17472
1339110171,5809,110.7099990844726600,22.3656997680664060,35.1483001708984400,230.7342987060547000,90.9918365478515600,22.3577308654785160,29.1872100830078120,111,127,91,84,62,15227,2152162678,2153339730,2155607561,2147998089,2149681197,2150487268,2151728621,2147519542,2714,1,16,37261
1339110276,5806,106.9400024414062500,22.5193996429443360,35.1589012145996100,232.1800994873047000,86.0794830322265600,22.5090007781982420,29.0560302734375000,120,139,92,84,61,15221,2153919149,2155469467,2158203730,2148060589,2150473435,2151562377,2152876763,2147623561,3034,2,16,27904
1339110403,5810,103.1100006103515600,22.5802993774414060,35.1614990234375000,233.9344024658203000,83.9172973632812500,22.5756092071533200,28.9459991455078120,124,123,88,83,61,15207,2159411218,2162373211,2166828717,2148274249,2152955081,2155049481,2156680109,2147969078,10,2,16,8671
1339110565,5811,98.9800033569336000,22.7257003784179700,35.1576004028320300,235.9255981445312500,79.3221130371093800,22.7172203063964840,28.7952499389648440,130,126,91,83,62,15182,2164229732,2167541723,2172134326,2148436096,2155058093,2157264667,2158738166,2148187282,3320,2,16,50471
1339110632,5809,96.9300003051757800,22.8519992828369140,35.1549987792968750,236.9317016601562500,75.6442031860351600,22.8306293487548830,28.7023506164550780,127,129,90,86,61,15173,2162036516,2164171675,2167197019,2148315721,2154042660,2155428032,2156507849,2148003620,3173,2,16,50641
1339110699,5808,95.2699966430664000,22.9242992401123050,35.1580009460449200,238.0117034912109400,73.0631637573242200,22.9102497100830080,28.6202697753906250,129,125,94,84,60,15171,2170930075,2174724489,2179395419,2148679396,2158062217,2160382802,2161634258,2148510637,357,2,16,21592
1339110778,5808,93.3700027465820300,23.1660995483398440,35.1483993530273440,239.0514984130859400,65.5951385498046900,23.1407699584960940,28.4791507720947270,119,125,93,83,61,15174,2172820598,2176439442,2180627227,2148718802,2159160795,2161332178,2162322029,2148589010,1285,2,16,28895
1339110868,5806,91.0400009155273400,23.4267997741699220,35.1386985778808600,241.0357055664062500,56.2216186523437500,23.4304409027099600,28.2723808288574220,91,126,94,84,59,15184,2176633398,2180363684,2183814893,2148865078,2161346441,2163322788,2163851702,2148762395,1658,2,16,29555
1339110935,5808,88.8099975585937500,23.5701999664306640,35.1383018493652340,241.7882995605468800,50.2688293457031250,23.6146106719970700,28.1646404266357420,83,129,93,86,60,15179,2171477988,2173705718,2175476452,2148655926,2159254016,2160288576,2160412114,2148441462,1439,2,16,61170
1339110990,5806,87.1100006103515600,23.7877998352050780,35.1305999755859400,242.8358001708984400,45.6925201416015600,23.7562999725341800,28.0612602233886720,78,127,94,85,59,15184,2166396370,2167360000,2168026267,2148430628,2157115437,2157480027,2157429321,2148144768,913,2,16,3540
1339111069,5810,85.4599990844726600,23.9090995788574220,35.1321983337402340,243.4051055908203000,42.0293693542480500,23.8697891235351560,27.9905891418457030,77,127,93,86,61,15194,2174569673,2176537572,2177615186,2148793718,2161786724,2162621430,2162134683,2148612434,925,2,16,355
1339111183,5806,82.8600006103515600,24.0946998596191400,35.1291999816894500,243.9694976806640600,35.3967018127441400,24.0754394531250000,27.8836593627929700,73,128,94,85,59,15193,2172265920,2173231990,2173290843,2148696054,2161530048,2161691382,2160642733,2148469622,1232,2,17,51011
1339111238,5809,81.2600021362304700,24.2176990509033200,35.1189994812011700,243.6941070556640600,31.6114997863769530,24.1928997039794920,27.8490390777587900,71,126,94,85,60,15185,2187525202,2190371904,2191116562,2149456109,2170991972,2171986267,2169841435,2149383808,1113,2,17,42661
1339111317,5810,79.3099975585937500,24.4179992675781250,35.0999984741210940,243.2062988281250000,25.1433696746826170,24.3937892913818360,27.7907009124755860,72,124,94,86,58,15192,2205989933,2211124059,2212686134,2150522560,2183537764,2185303195,2181361645,2150546624,1318,3,17,9196
1339111420,5807,77.6600036621093800,24.4937992095947270,35.0922012329101560,242.7810974121093800,22.0756092071533200,24.4891395568847660,27.7717609405517580,70,123,94,84,57,15182,2197941677,2201569728,2201865938,2150131346,2179718189,2180479378,2176293366,2150038628,1454,2,17,61338
1339111534,5806,74.5500030517578100,24.5356006622314450,35.0807991027832000,242.8206024169922000,20.7318801879882800,24.5309200286865230,27.7534198760986330,68,124,90,85,56,15185,2202950400,2206678464,2206755821,2150652406,2186157001,2186278244,2180191003,2150448969,1644,2,17,43552
1339111589,5808,72.1100006103515600,24.5774002075195300,35.0694007873535160,242.8945007324218800,19.7098503112792970,24.5627098083496100,27.7375106811523440,67,125,92,85,56,15182,2194278646,2196429933,2195585014,2150235318,2181770267,2180945042,2174936283,2149922139,2093,2,16,29120
1339111644,5807,69.7099990844726600,24.6061992645263670,35.0691986083984400,242.7751007080078000,18.4289703369140620,24.6025505065917970,27.7269897460937500,65,124,94,85,60,15182,2203717568,2206327634,2205046985,2150995876,2191436882,2190223332,2182014582,2150653522,2358,2,16,7031
1339111699,5811,67.3300018310546900,24.6383991241455080,35.0693016052246100,242.5594024658203000,17.3431205749511720,24.6363391876220700,27.7233009338378900,67,122,93,85,58,15175,2216166052,2220215460,2219572516,2152392146,2201846829,2200643620,2190129764,2151573376,1913,2,16,25891
1339111754,5819,64.9100036621093800,24.6882991790771500,35.0624008178710940,242.3863067626953000,15.8902301788330080,24.6815490722656250,27.7130107879638670,62,121,92,85,55,15180,2217127451,2220937682,2220092626,2152948361,2204804178,2202928502,2191297810,2151779620,1812,1,17,30230
1339111811,5807,62.5000000000000000,24.6972999572753900,35.0607986450195300,242.3448944091797000,15.4199304580688480,24.6961898803710940,27.7089805603027340,64,122,93,84,56,15181,2221714331,2225472091,2224156004,2153692818,2210196160,2207840027,2194639058,2152205714,2030,2,16,64033
1339111866,5817,60.1699981689453100,24.7096996307373050,35.0607986450195300,242.3002929687500000,15.0079498291015620,24.7090091705322270,27.7059593200683600,63,122,93,85,56,15169,2246511030,2252570340,2251874907,2156755346,2234054930,2230992850,2212214930,2154191021,1780,1,17,12690
1339111921,5804,57.8199996948242200,24.7196998596191400,35.0615005493164060,242.2973937988281200,14.5399198532104500,24.7235908508300780,27.7003898620605470,63,124,93,85,58,15180,2241798784,2246765586,2245715867,2156880557,2231637988,2227805531,2209147273,2154053394,1388,1,16,2294
1339111976,5805,55.4300003051757800,24.7278003692626950,35.0584983825683600,242.2552032470703000,14.3019104003906250,24.7310009002685550,27.6992492675781250,61,123,94,84,57,15168,2239980608,2244342445,2243176713,2157458770,2230660443,2226352192,2207400512,2153965842,999,2,16,766
1339112031,5812,53.0200004577636700,24.7315006256103500,35.0558013916015600,242.3706970214843800,13.9827804565429690,24.7409305572509770,27.6902103424072270,60,123,94,84,56,15170,2250160694,2254796397,2253402413,2159656822,2245103954,2239611254,2216836745,2155168146,906,2,16,29622
1339112086,5807,50.5999984741210940,24.7360992431640620,35.0555992126464840,242.2626953125000000,13.9266195297241210,24.7426795959472660,27.6941890716552730,61,123,93,86,59,15175,2256718710,2261321472,2259498240,2161279104,2252081106,2245522020,2220564690,2155826697,1089,2,17,28753
1339112143,5811,48.0800018310546900,24.7450008392334000,35.0541000366210940,242.2409057617187500,13.6124000549316400,24.7524604797363280,27.6913509368896500,62,123,93,86,58,15170,2275692233,2281739282,2280364891,2165701522,2273772114,2266152201,2235692937,2158016384,1278,1,17,45444
1339112198,5809,45.7700004577636700,24.7709999084472660,35.0528984069824200,242.2722930908203000,12.8637800216674800,24.7757797241210940,27.6808700561523440,59,122,93,85,55,15165,2259077915,2262691163,2259634669,2163826395,2261776091,2253255021,2224920219,2156772845,863,1,16,47091
1339112253,5807,43.7299995422363300,24.7844009399414060,35.0528984069824200,242.2026062011718800,12.5299797058105470,24.7861690521240230,27.6798305511474600,58,120,91,84,59,15171,2231176155,2231354450,2227150107,2159387766,2233737837,2224550290,2202235510,2154042642,109,2,16,7246
1339112308,5808,41.9199981689453100,24.7985992431640620,35.0522994995117200,242.1026000976562500,12.0257596969604500,24.8018703460693360,27.6779193878173830,57,122,91,84,59,15163,2253671689,2256245595,2253072557,2165088246,2259416630,2249124480,2220563099,2156777956,3121,1,17,54866
1339112363,5806,40.2299995422363300,24.8094005584716800,35.0523986816406250,241.9501037597656200,11.5390300750732420,24.8170299530029300,27.6787605285644530,57,125,94,84,60,15172,2294267190,2301438610,2300525266,2176016969,2303583762,2291698633,2252363821,2161526701,3012,1,17,8873
1339112430,5810,38.2000007629394500,24.8166999816894530,35.0527000427246100,241.9916992187500000,11.4099998474121100,24.8210506439209000,27.6753597259521500,56,121,93,86,56,15171,2255031972,2256443328,2252706733,2167912722,2265273828,2252753444,2221757366,2157344658,3350,1,16,24571
1339112508,5809,35.1699981689453100,24.8260002136230470,35.0540008544921900,241.9459075927734400,11.0783700942993160,24.8313808441162100,27.6731605529785160,54,127,93,84,58,15174,2262847643,2264303881,2260847588,2172324955,2278715940,2263744027,2228265828,2158685019,71,1,16,62298
1339112563,5806,32.3499984741210940,24.8293991088867200,35.0533981323242200,241.9114990234375000,10.8574800491333000,24.8382606506347660,27.6721096038818360,54,120,94,85,55,15177,2337689627,2346060937,2346644388,2200238052,2369985170,2350311232,2292101284,2169758043,47,2,16,23680